Tracking 31027 objects as of 19-Jul-2025
HD Live streaming from Space Station
objects crossing your sky now

STARLINK-30214

Track STARLINK-30214 now!
10-day predictions
STARLINK-30214 is classified as:


NORAD ID: 57411
Int'l Code: 2023-102H
Perigee: 565.7 km
Apogee: 566.7 km
Inclination: 43.0 °
Period: 95.8 minutes
Semi major axis: 6937 km
RCS: Unknown
Launch date: July 20, 2023
Source: United States (US)
Launch site: AIR FORCE WESTERN TEST RANGE (AFWTR)
Your satellite tracking list
DMSP 5D-2 F13 DEB
Track 1 satellite(s)




NASA's NSSDC Master Catalog

Two Line Element Set (TLE):
1 57411U 23102H   25199.37255483 -.00000397  00000-0 -14338-4 0  9993
2 57411  43.0034  81.6996 0000766 236.2293 123.8476 15.02536311110942
Source of the keplerian elements: AFSPC